Dewpoint
54 53 53 53 53 53 54 54 55 55 56 56 56 56 56 56 56 57 57 57 57 57 57 56 56 57 49 35 29 46 54 50 46 44 41 40 37 36 31 31 34 35 31 31 32 34 33
54 53 52 53 53 53 54 55 55 55 56 56 56 56 56 56 56 56 56 57 57 56 56 56 56 56 40 28 39 46 43 43 42 41 40 40 39 39 37 35 35 37 36 35 35 33 32
52 53 53 54 54 54 55 55 56 56 56 56 56 56 56 56 56 56 56 57 57 57 56 55 55 44 36 29 39 46 43 41 42 41 38 42 42 40 39 34 39 37 36 31 28 29 28
54 55 55 56 56 57 57 57 56 56 55 55 56 55 56 55 56 56 57 56 56 56 56 54 54 41 30 41 44 43 43 40 42 43 43 45 44 42 41 39 37 32 29 24 25 28 28
55 56 57 56 56 55 55 55 55 55 54 54 54 54 55 55 55 56 56 54 53 54 54 52 45 38 27 44 39 40 40 36 40 43 45 44 44 40 39 33 25 29 21 22 22 28 28
56 55 55 54 54 54 53 53 53 53 52 52 52 52 53 54 55 56 56 51 50 52 48 43 38 34 31 29 36 38 38 38 38 40 43 43 39 35 32 23 16 18 18 18 21 22 24
54 53 53 53 52 52 52 52 51 51 51 51 52 52 52 53 54 55 48 41 36 38 39 28 31 29 27 33 36 35 37 39 38 36 29 33 28 26 18 22 22 21 21 21 20 21 24
52 52 51 51 50 50 50 50 49 49 50 50 50 50 51 52 53 55 47 35 40 41 33 35 34 32 33 33 27 33 38 35 32 29 28 27 24 22 25 25 25 23 22 20 17 22 23
51 50 50 49 48 49 48 48 48 48 48 49 49 49 50 52 53 47 40 40 45 44 37 34 33 29 30 32 27 30 37 33 30 27 26 24 19 25 24 22 21 17 15 16 20 23 27
48 48 47 46 47 46 46 46 47 47 47 47 48 48 49 51 47 39 40 43 45 45 35 29 30 33 34 34 29 34 37 34 30 26 24 23 25 24 21 20 20 17 22 22 22 23 24
45 45 46 45 45 45 45 46 46 46 46 46 47 47 49 51 47 35 44 44 45 44 34 28 29 35 34 31 30 34 37 33 28 23 26 22 22 22 24 18 23 16 25 23 24 24 26
45 45 44 44 44 44 45 45 45 45 46 46 46 47 48 46 45 43 46 46 45 38 34 21 28 29 28 29 29 34 34 34 33 29 26 25 29 28 21 24 26 24 22 20 24 22 28
44 44 44 44 44 44 45 45 45 45 45 45 47 47 48 45 41 47 47 43 33 32 18 14 22 26 24 23 26 30 30 29 26 29 26 22 21 24 26 24 26 24 18 25 20 25 13
45 44 44 43 44 44 44 44 45 45 45 48 47 47 48 46 48 48 45 29 22 15 7 21 23 24 22 16 22 27 25 23 22 23 23 28 27 21 27 22 20 20 20 21 7 8 8
43 43 42 43 43 43 44 44 45 45 47 48 47 44 45 46 48 47 37 29 23 11 16 21 21 17 10 21 23 21 21 20 11 22 15 15 12 21 23 23 24 24 22 23 16 16 20
42 42 42 43 43 44 44 44 44 45 47 47 40 41 43 45 47 44 30 26 16 22 27 21 11 4 3 4 19 19 9 13 19 21 19 14 10 17 24 26 27 25 23 21 23 17 7
42 42 43 43 44 44 44 45 44 44 46 47 41 31 42 44 47 36 28 25 24 28 30 26 17 14 10 8 10 6 5 15 19 23 23 19 16 15 21 21 16 24 21 22 20 17 10
42 43 44 44 44 45 44 45 44 44 46 43 37 29 41 44 34 33 28 30 34 31 28 27 28 26 20 17 17 14 13 14 24 25 19 19 18 14 7 17 21 20 17 16 17 13 14
44 44 44 44 44 44 44 44 45 44 43 41 31 33 40 42 24 26 29 30 30 28 29 28 27 29 27 23 19 16 17 28 28 26 23 23 19 14 12 18 21 19 18 18 18 19 15
41 42 42 42 43 43 43 43 44 44 43 42 32 29 31 35 33 29 28 25 29 30 31 30 28 29 28 24 22 21 21 27 31 28 34 29 21 16 12 9 18 18 20 20 20 20 17
42 43 43 43 43 43 43 43 43 44 43 37 30 29 28 24 26 22 23 25 25 24 29 29 29 27 25 26 26 25 28 28 29 31 28 26 22 23 21 21 20 20 19 19 19 18 18
42 42 42 42 42 42 42 42 43 43 43 31 26 24 22 18 20 22 24 23 24 23 24 23 24 24 22 21 23 24 24 25 25 28 28 28 24 23 23 22 21 21 21 20 20 20 19
40 40 40 40 40 40 40 40 41 43 40 32 32 30 27 21 16 14 15 20 21 21 20 23 24 20 18 18 20 19 19 18 20 24 25 26 26 25 22 20 21 19 18 19 21 21 19
38 38 38 38 38 38 38 39 39 40 41 37 36 33 25 16 15 13 15 18 16 14 17 17 16 13 18 20 16 10 10 11 11 10 15 17 19 24 22 21 15 15 17 22 21 21 21
37 37 37 37 37 37 37 38 38 38 38 39 39 35 30 20 17 16 16 17 17 17 16 16 17 19 18 15 7 3 -1 12 17 10 11 13 15 14 16 13 11 11 12 14 21 20 23
37 37 37 37 37 37 39 39 40 39 39 37 38 39 35 30 16 19 18 17 17 15 15 15 17 18 18 12 8 5 1 0 4 19 27 24 18 13 9 11 6 18 22 23 22 20 26
40 40 40 40 39 39 39 39 39 39 39 39 37 38 36 29 24 23 23 21 20 18 21 16 17 17 16 11 6 1 -1 0 4 1 12 23 24 18 15 13 11 21 24 24 17 21 24
37 37 37 37 37 38 39 39 39 39 39 40 37 37 36 31 27 26 27 24 22 23 22 18 21 14 14 13 10 10 14 19 13 12 12 15 17 18 20 19 16 15 22 25 24 21 15
36 36 36 36 36 37 38 38 38 39 38 39 37 36 39 34 30 30 30 30 30 27 26 30 19 16 16 14 9 10 6 7 4 1 3 0 16 10 10 18 15 10 10 11 9 8 7
Lifted_Index
10 10 10 10 10 10 9 9 9 9 8 8 8 8 8 8 8 8 8 8 8 8 8 8 8 8 8 9 8 8 7 7 8 7 7 6 6 6 6 6 6 6 6 6 7 7 7
10 10 10 10 10 10 9 9 9 8 8 8 8 8 8 8 8 8 8 8 8 8 8 8 8 8 8 8 8 8 8 8 8 7 7 6 6 6 6 5 5 5 6 6 6 7 7
9 9 9 9 9 9 9 8 8 8 8 8 8 8 8 8 8 8 8 8 7 7 8 8 8 9 9 8 8 8 8 8 8 7 7 6 6 5 5 5 5 5 5 5 5 6 7
8 8 8 8 8 8 8 8 8 8 8 8 8 8 8 8 8 8 8 8 7 7 7 8 8 8 8 8 8 8 7 8 7 7 6 6 5 5 4 4 4 4 4 4 5 6 6
8 8 8 8 8 8 9 9 9 9 9 9 9 10 9 9 8 8 8 8 8 8 8 8 8 8 8 8 8 7 7 7 7 6 6 5 5 4 4 3 3 3 3 3 4 5 6
8 8 9 9 9 10 10 10 10 10 10 10 11 11 10 10 9 9 9 9 8 8 7 8 7 7 7 7 8 7 7 7 6 6 5 4 4 3 3 3 3 3 3 3 4 5 5
9 9 10 10 10 11 11 11 11 11 11 11 11 12 11 11 10 9 9 9 8 8 7 7 6 6 7 7 7 7 7 6 6 5 4 4 3 3 3 3 3 3 3 3 3 4 4
10 10 11 11 11 12 12 12 12 12 12 12 12 12 12 11 10 10 9 9 9 8 7 6 6 6 7 7 6 6 6 6 5 4 3 3 3 3 3 3 3 3 3 3 3 4 4
11 12 12 12 13 13 13 13 13 13 13 13 13 12 12 11 10 10 10 10 10 9 7 6 6 6 7 6 6 6 6 5 4 3 3 3 3 3 3 3 3 3 2 3 3 3 3
13 13 14 14 14 15 15 15 15 14 14 14 14 13 12 11 10 10 10 10 10 8 6 5 6 6 6 6 5 5 5 5 4 3 3 3 3 3 2 2 2 2 2 3 3 2 2
15 15 15 15 16 16 16 16 16 15 15 15 15 14 13 11 10 9 9 9 9 6 5 5 5 6 6 5 5 5 5 5 4 3 3 3 3 3 2 3 3 3 3 3 3 2 2
16 16 16 16 16 16 16 16 16 16 16 15 15 14 13 11 9 9 9 8 7 5 4 4 5 5 5 5 5 5 5 4 4 3 2 2 3 3 3 3 3 3 3 2 2 2 2
16 16 17 17 17 17 16 16 16 16 15 15 15 14 12 10 9 9 8 7 5 4 4 4 5 5 4 4 4 4 4 3 3 2 2 2 2 3 3 3 3 3 2 2 1 1 1
16 17 17 17 17 17 16 16 16 16 15 15 14 13 11 10 9 9 8 6 5 5 5 5 5 5 5 4 4 4 4 3 3 3 2 2 2 3 3 3 3 3 2 2 1 1 1
17 17 17 17 17 17 16 16 16 15 15 14 13 12 10 10 10 9 7 6 6 6 6 6 5 5 5 5 5 4 4 4 4 3 3 2 2 3 4 4 4 3 3 2 2 1 1
17 17 17 17 17 17 16 16 16 15 15 14 13 11 10 10 9 8 7 7 7 7 7 6 5 5 5 5 5 5 5 5 5 4 4 3 3 4 4 4 4 4 3 3 3 2 1
17 17 17 16 17 17 16 16 16 15 15 14 12 11 10 10 9 8 7 7 7 7 7 7 6 6 5 5 5 5 5 5 5 5 5 4 4 4 4 4 4 4 4 3 3 2 2
16 16 16 16 16 16 16 16 16 15 15 14 12 10 10 9 8 8 7 7 8 7 7 6 6 6 5 5 4 4 4 4 5 5 5 4 4 4 4 4 4 4 4 4 3 3 3
16 16 16 16 16 16 16 16 16 15 15 13 11 10 10 9 8 8 8 8 7 7 6 6 6 6 5 5 4 4 4 4 4 4 4 4 4 3 3 4 4 4 4 4 4 3 3
16 16 16 16 16 16 16 16 15 15 14 13 11 11 10 9 9 8 8 7 7 6 6 6 6 5 5 4 4 4 4 4 4 4 4 4 4 3 3 4 4 4 4 4 4 3 3
16 16 15 16 16 16 16 16 15 15 15 14 12 11 11 10 9 9 8 7 6 5 6 5 5 5 5 4 4 4 4 4 4 3 3 3 3 3 3 3 3 4 4 4 3 3 3
15 15 15 15 16 16 16 15 15 15 15 14 13 12 12 11 9 8 7 6 6 6 6 6 6 6 6 6 5 5 5 5 5 4 3 3 3 3 3 3 3 3 3 3 3 3 3
15 15 16 16 16 16 16 16 15 15 15 14 14 13 12 10 9 8 7 7 7 8 8 8 8 8 8 8 8 8 7 7 6 6 5 4 3 3 2 2 2 2 3 3 2 3 3
16 16 16 16 16 16 16 16 16 15 15 14 14 13 12 10 9 9 9 9 9 9 9 10 10 10 10 10 10 9 8 8 8 7 7 6 5 3 2 2 2 3 4 3 3 3 3
16 16 16 16 16 16 16 16 15 15 14 14 13 13 12 10 10 11 11 11 11 11 11 11 11 11 11 11 10 7 7 7 7 7 7 7 6 4 3 2 2 3 4 4 4 3 3
16 16 16 16 16 16 15 15 14 14 13 13 13 12 12 12 11 12 11 11 11 11 11 11 11 11 12 11 9 6 5 6 6 6 6 6 6 5 3 2 2 3 4 3 3 3 3
15 15 15 15 15 15 14 13 13 13 13 12 12 12 12 12 12 12 12 11 11 11 10 10 10 10 10 10 9 7 6 7 7 6 6 6 5 5 4 3 3 4 4 3 3 3 4
15 15 15 15 14 14 13 13 12 12 12 12 12 12 12 12 12 12 11 10 10 9 9 9 8 8 9 8 8 7 7 8 7 7 7 6 5 4 4 4 4 5 5 5 4 5 5
15 15 15 14 14 13 13 12 12 12 12 12 12 12 12 12 12 11 10 9 9 8 8 7 7 7 7 7 7 8 8 8 8 8 7 6 5 5 4 4 4 6 7 7 7 6 7